| time (UTC) | temp F | wind direction | speed knots | gust knots | rain 1hr in | rain 24hr in | rain mn in | humidity % | barometer mb |
| 20260510104519 | 50 | 0.0 | 0.0 | 0.00 | 0.00 | 0.00 | 94 | 1015.2 | |
| 20260510103559 | 50 | 0.0 | 0.0 | 0.00 | 0.00 | 0.00 | 94 | 1015.2 | |
| 20260510102518 | 50 | 0.0 | 0.0 | 0.00 | 0.00 | 0.00 | 93 | 1015.0 | |
| 20260510101538 | 49 | 0.0 | 0.0 | 0.00 | 0.00 | 0.00 | 94 | 1015.0 | |
| 20260510100518 | 49 | 0.0 | 0.0 | 0.00 | 0.00 | 0.00 | 93 | 1014.8 | |
| 20260510095538 | 49 | 0.0 | 0.0 | 0.00 | 0.00 | 0.00 | 93 | 1014.7 | |
| 20260510094518 | 49 | 0.0 | 0.0 | 0.00 | 0.00 | 0.00 | 93 | 1014.6 | |
| 20260510093538 | 49 | 0.0 | 0.0 | 0.00 | 0.00 | 0.00 | 93 | 1014.5 | |
| 20260510092518 | 50 | 0.0 | 0.0 | 0.00 | 0.00 | 0.00 | 93 | 1014.5 | |
| 20260510091538 | 50 | 0.0 | 0.0 | 0.00 | 0.00 | 0.00 | 93 | 1014.6 | |
| 20260510090518 | 50 | 0.0 | 0.0 | 0.00 | 0.00 | 0.00 | 93 | 1014.6 | |
| 20260510085539 | 50 | 0.0 | 0.0 | 0.00 | 0.00 | 0.00 | 92 | 1014.4 | |
| 20260510084518 | 51 | 0.0 | 0.0 | 0.00 | 0.00 | 0.00 | 92 | 1014.4 | |
| 20260510083518 | 51 | 0.0 | 0.0 | 0.00 | 0.00 | 0.00 | 92 | 1014.4 | |
| 20260510082538 | 52 | 0.0 | 0.0 | 0.00 | 0.00 | 0.00 | 92 | 1014.4 | |
| 20260510081518 | 52 | 0.0 | 0.0 | 0.00 | 0.00 | 0.00 | 92 | 1014.2 | |
| 20260510080518 | 52 | 0.0 | 0.0 | 0.00 | 0.00 | 0.00 | 92 | 1014.0 | |
| 20260510075518 | 52 | 0.0 | 0.0 | 0.00 | 0.00 | 0.00 | 92 | 1014.0 | |
| 20260510074518 | 52 | 0.0 | 0.0 | 0.00 | 0.00 | 0.00 | 91 | 1013.9 | |
| 20260510073559 | 53 | 0.0 | 0.0 | 0.00 | 0.00 | 0.00 | 91 | 1013.9 | |
| 20260510072518 | 54 | 0.0 | 0.0 | 0.00 | 0.00 | 0.00 | 90 | 1014.0 | |
| 20260510071518 | 54 | 0.0 | 0.0 | 0.00 | 0.00 | 0.00 | 90 | 1014.0 | |
| 20260510070518 | 54 | 0.0 | 0.0 | 0.00 | 0.00 | 0.00 | 90 | 1013.9 | |
| 20260510065538 | 55 | 0.0 | 0.0 | 0.00 | 0.00 | 0.00 | 89 | 1013.9 | |
| 20260510064518 | 55 | 0.0 | 0.0 | 0.00 | 0.00 | 0.00 | 89 | 1013.9 | |
| 20260510063537 | 55 | 0.0 | 0.0 | 0.00 | 0.00 | 0.00 | 88 | 1013.9 | |
| 20260510062517 | 56 | 0.0 | 0.0 | 0.00 | 0.00 | 0.00 | 88 | 1013.9 | |
| 20260510061518 | 56 | 0.0 | 0.0 | 0.00 | 0.00 | 0.00 | 88 | 1013.7 | |
| 20260510060538 | 55 | 0.0 | 0.0 | 0.00 | 0.00 | 0.00 | 89 | 1013.8 | |
| 20260510055517 | 55 | 0.0 | 0.0 | 0.00 | 0.00 | 0.00 | 89 | 1013.7 | |
| 20260510054517 | 55 | 0.0 | 0.0 | 0.00 | 0.00 | 0.00 | 89 | 1013.6 | |
| 20260510053538 | 55 | 0.0 | 0.0 | 0.00 | 0.00 | 0.00 | 88 | 1013.5 | |
| 20260510052518 | 55 | 0.0 | 0.0 | 0.00 | 0.00 | 0.00 | 88 | 1013.6 | |
| 20260510051518 | 55 | 0.0 | 0.0 | 0.00 | 0.00 | 0.00 | 88 | 1013.5 | |
| 20260510050518 | 56 | 0.0 | 0.0 | 0.00 | 0.00 | 0.00 | 87 | 1013.5 | |
| 20260510045517 | 56 | 0.0 | 0.0 | 0.00 | 0.00 | 0.00 | 87 | 1013.5 | |
| 20260510044518 | 56 | 0.0 | 0.0 | 0.00 | 0.00 | 0.00 | 86 | 1013.6 | |
| 20260510043538 | 56 | 0.0 | 0.0 | 0.00 | 0.00 | 0.00 | 86 | 1013.6 | |
| 20260510042518 | 56 | 0.0 | 0.0 | 0.00 | 0.00 | 0.00 | 85 | 1013.6 | |
| 20260510041538 | 57 | 0.0 | 0.0 | 0.00 | 0.00 | 0.00 | 84 | 1013.5 | |
| 20260510040518 | 57 | 0.0 | 0.0 | 0.00 | 0.00 | 0.00 | 83 | 1013.4 | |
| 20260510035518 | 58 | 0.0 | 0.0 | 0.00 | 0.00 | 0.00 | 82 | 1013.5 | |
| 20260510034518 | 58 | 0.0 | 0.0 | 0.00 | 0.00 | 0.00 | 82 | 1013.5 | |
| 20260510033518 | 58 | 0.0 | 0.0 | 0.00 | 0.00 | 0.00 | 82 | 1013.5 | |
| 20260510032538 | 58 | 0.0 | 0.0 | 0.00 | 0.00 | 0.00 | 81 | 1013.3 | |
| 20260510031517 | 59 | 0.0 | 0.0 | 0.00 | 0.00 | 0.00 | 79 | 1013.2 | |
| 20260510030558 | 59 | 0.0 | 0.0 | 0.00 | 0.00 | 0.00 | 79 | 1013.2 | |
| 20260510025518 | 60 | 0.0 | 0.0 | 0.00 | 0.00 | 0.00 | 78 | 1013.1 | |
| 20260510024538 | 61 | 0.0 | 0.0 | 0.00 | 0.00 | 0.00 | 77 | 1013.0 | |
| 20260510023518 | 61 | 0.0 | 0.0 | 0.00 | 0.00 | 0.00 | 76 | 1012.9 | |
| 20260510022518 | 61 | 0.0 | 0.0 | 0.00 | 0.00 | 0.00 | 75 | 1012.5 | |
| 20260510021518 | 62 | 0.0 | 0.0 | 0.00 | 0.00 | 0.00 | 74 | 1012.6 | |
| 20260510020518 | 62 | 0.0 | 0.0 | 0.00 | 0.00 | 0.00 | 73 | 1012.5 | |
| 20260510015518 | 62 | 0.0 | 0.0 | 0.00 | 0.00 | 0.00 | 73 | 1012.3 | |
| 20260510014518 | 63 | 0.0 | 0.0 | 0.00 | 0.00 | 0.00 | 72 | 1012.1 | |
| 20260510013518 | 63 | 0.0 | 0.0 | 0.00 | 0.00 | 0.00 | 72 | 1012.1 | |
| 20260510012523 | 63 | 0.0 | 0.0 | 0.00 | 0.00 | 0.00 | 72 | 1011.8 | |
| 20260510011518 | 63 | 0.0 | 0.0 | 0.00 | 0.00 | 0.00 | 70 | 1011.7 | |
| 20260510010519 | 64 | 0.0 | 0.0 | 0.00 | 0.00 | 0.00 | 69 | 1011.6 | |
| 20260510005518 | 64 | 0.0 | 0.0 | 0.00 | 0.00 | 0.00 | 68 | 1011.4 | |
| 20260510004518 | 65 | 0.0 | 0.0 | 0.00 | 0.00 | 0.00 | 66 | 1011.4 | |
| 20260510003518 | 66 | 0.0 | 0.0 | 0.00 | 0.00 | 0.00 | 65 | 1011.3 | |
| 20260510002518 | 66 | 0.0 | 0.0 | 0.00 | 0.00 | 0.00 | 64 | 1011.1 | |
| 20260510001518 | 67 | 0.0 | 0.0 | 0.00 | 0.00 | 0.00 | 62 | 1011.1 | |
| 20260510000519 | 68 | 0.0 | 0.0 | 0.00 | 0.00 | 0.00 | 62 | 1011.0 | |
| 20260509235538 | 69 | 0.0 | 0.0 | 0.00 | 0.00 | 0.00 | 62 | 1010.9 | |
| 20260509234518 | 69 | 0.0 | 0.0 | 0.00 | 0.00 | 0.00 | 59 | 1010.8 | |
| 20260509233518 | 70 | 0.0 | 0.0 | 0.00 | 0.00 | 0.00 | 58 | 1010.7 | |
| 20260509232518 | 71 | 0.0 | 0.0 | 0.00 | 0.00 | 0.00 | 56 | 1010.9 | |
| 20260509231518 | 71 | 0.0 | 0.0 | 0.00 | 0.00 | 0.00 | 55 | 1010.7 | |
| 20260509230517 | 72 | 0.0 | 0.0 | 0.00 | 0.00 | 0.00 | 55 | 1010.8 | |
| 20260509225518 | 72 | 0.0 | 0.0 | 0.00 | 0.00 | 0.00 | 52 | 1010.6 | |
| 20260509224517 | 73 | 0.0 | 0.9 | 0.00 | 0.00 | 0.00 | 52 | 1010.6 | |
| 20260509223517 | 73 | 45 | 0.9 | 1.7 | 0.00 | 0.00 | 0.00 | 52 | 1010.7 |
| 20260509222518 | 74 | 0.0 | 0.0 | 0.00 | 0.00 | 0.00 | 50 | 1010.7 | |
| 20260509221518 | 73 | 0.0 | 0.9 | 0.00 | 0.00 | 0.00 | 52 | 1010.7 | |
| 20260509220538 | 74 | 180 | 0.9 | 2.6 | 0.00 | 0.00 | 0.00 | 52 | 1010.7 |
| 20260509215518 | 74 | 0.0 | 0.9 | 0.00 | 0.00 | 0.00 | 50 | 1010.6 | |
| 20260509214538 | 74 | 0.0 | 0.0 | 0.00 | 0.00 | 0.00 | 50 | 1010.6 | |
| 20260509213518 | 74 | 225 | 0.9 | 0.9 | 0.00 | 0.00 | 0.00 | 48 | 1010.7 |
| 20260509212618 | 75 | 225 | 1.7 | 1.7 | 0.00 | 0.00 | 0.00 | 51 | 1010.6 |
| 20260509211517 | 74 | 248 | 1.7 | 2.6 | 0.00 | 0.00 | 0.00 | 48 | 1010.6 |
| 20260509210517 | 75 | 248 | 0.9 | 1.7 | 0.00 | 0.00 | 0.00 | 47 | 1010.6 |
| 20260509205518 | 75 | 203 | 0.9 | 1.7 | 0.00 | 0.00 | 0.00 | 47 | 1010.4 |
| 20260509204518 | 76 | 180 | 0.9 | 1.7 | 0.00 | 0.00 | 0.00 | 48 | 1010.4 |
| 20260509203517 | 74 | 0.0 | 0.9 | 0.00 | 0.00 | 0.00 | 52 | 1010.3 | |
| 20260509202518 | 74 | 0.0 | 0.9 | 0.00 | 0.00 | 0.00 | 49 | 1010.3 | |
| 20260509201537 | 74 | 0.0 | 0.9 | 0.00 | 0.00 | 0.00 | 48 | 1010.4 | |
| 20260509200517 | 75 | 225 | 1.7 | 4.3 | 0.00 | 0.00 | 0.00 | 47 | 1010.4 |
| 20260509195517 | 75 | 180 | 1.7 | 2.6 | 0.00 | 0.00 | 0.00 | 48 | 1010.5 |
| 20260509194517 | 75 | 135 | 0.9 | 1.7 | 0.00 | 0.00 | 0.00 | 49 | 1010.8 |
| 20260509193517 | 75 | 0.0 | 0.9 | 0.00 | 0.00 | 0.00 | 50 | 1010.9 | |
| 20260509192517 | 75 | 0.0 | 0.0 | 0.00 | 0.00 | 0.00 | 50 | 1010.9 | |
| 20260509191518 | 75 | 113 | 1.7 | 3.5 | 0.00 | 0.00 | 0.00 | 48 | 1010.9 |
| 20260509190517 | 75 | 225 | 0.9 | 1.7 | 0.00 | 0.00 | 0.00 | 50 | 1011.0 |
| 20260509185517 | 75 | 225 | 0.9 | 1.7 | 0.00 | 0.00 | 0.00 | 50 | 1011.3 |
| 20260509184518 | 76 | 135 | 0.9 | 1.7 | 0.00 | 0.00 | 0.00 | 48 | 1011.6 |
| 20260509183517 | 75 | 0.0 | 0.0 | 0.00 | 0.00 | 0.00 | 49 | 1011.8 | |
| 20260509182517 | 75 | 248 | 1.7 | 4.3 | 0.00 | 0.00 | 0.00 | 54 | 1012.0 |
| 20260509181538 | 75 | 0.0 | 0.9 | 0.00 | 0.00 | 0.00 | 52 | 1012.2 | |
| 20260509180517 | 71 | 0.0 | 0.0 | 0.00 | 0.00 | 0.00 | 58 | 1012.3 | |
| 20260509175537 | 72 | 248 | 1.7 | 3.5 | 0.00 | 0.00 | 0.00 | 55 | 1012.3 |
| 20260509174517 | 73 | 248 | 1.7 | 2.6 | 0.00 | 0.00 | 0.00 | 55 | 1012.2 |
| 20260509173517 | 73 | 248 | 0.9 | 1.7 | 0.00 | 0.00 | 0.00 | 56 | 1012.5 |
| 20260509172517 | 73 | 225 | 0.9 | 1.7 | 0.00 | 0.00 | 0.00 | 53 | 1012.7 |
| 20260509171517 | 72 | 248 | 1.7 | 2.6 | 0.00 | 0.00 | 0.00 | 55 | 1012.8 |
| 20260509170517 | 72 | 225 | 2.6 | 5.2 | 0.00 | 0.00 | 0.00 | 55 | 1012.7 |
| 20260509165517 | 68 | 158 | 0.9 | 1.7 | 0.00 | 0.00 | 0.00 | 65 | 1012.8 |
| 20260509164517 | 68 | 0.0 | 0.0 | 0.00 | 0.00 | 0.00 | 64 | 1012.8 | |
| 20260509163516 | 68 | 180 | 0.9 | 1.7 | 0.00 | 0.00 | 0.00 | 63 | 1012.8 |
| 20260509162517 | 69 | 113 | 1.7 | 1.7 | 0.00 | 0.00 | 0.00 | 61 | 1012.9 |
| 20260509161517 | 69 | 203 | 0.9 | 1.7 | 0.00 | 0.00 | 0.00 | 61 | 1012.9 |
| 20260509160517 | 68 | 0.0 | 1.7 | 0.00 | 0.00 | 0.00 | 62 | 1013.1 | |
| 20260509155537 | 70 | 158 | 0.9 | 1.7 | 0.00 | 0.00 | 0.00 | 59 | 1013.1 |
| 20260509154537 | 68 | 0.0 | 1.7 | 0.00 | 0.00 | 0.00 | 62 | 1013.4 | |
| 20260509153516 | 67 | 248 | 2.6 | 3.5 | 0.00 | 0.00 | 0.00 | 62 | 1013.4 |
| 20260509152517 | 65 | 158 | 0.9 | 1.7 | 0.00 | 0.00 | 0.00 | 66 | 1013.4 |
| 20260509151516 | 64 | 135 | 0.9 | 0.9 | 0.00 | 0.00 | 0.00 | 68 | 1013.4 |
| 20260509150516 | 64 | 0.0 | 1.7 | 0.00 | 0.00 | 0.00 | 64 | 1013.7 | |
| 20260509145516 | 65 | 225 | 0.9 | 1.7 | 0.00 | 0.00 | 0.00 | 65 | 1013.6 |
| 20260509144537 | 64 | 248 | 1.7 | 2.6 | 0.00 | 0.00 | 0.00 | 64 | 1013.6 |
| 20260509143516 | 62 | 0.0 | 0.0 | 0.00 | 0.00 | 0.00 | 66 | 1013.8 | |
| 20260509142517 | 60 | 0.0 | 1.7 | 0.00 | 0.00 | 0.00 | 70 | 1013.9 | |
| 20260509141536 | 59 | 0.0 | 0.9 | 0.00 | 0.00 | 0.00 | 72 | 1014.2 | |
| 20260509140536 | 59 | 90 | 0.9 | 1.7 | 0.00 | 0.00 | 0.00 | 72 | 1014.2 |
| 20260509135516 | 58 | 0.0 | 0.0 | 0.00 | 0.00 | 0.00 | 74 | 1014.3 | |
| 20260509134516 | 57 | 0.0 | 0.0 | 0.00 | 0.00 | 0.00 | 74 | 1014.2 | |
| 20260509133516 | 57 | 0.0 | 0.0 | 0.00 | 0.00 | 0.00 | 73 | 1014.3 | |
| 20260509132516 | 57 | 0.0 | 0.0 | 0.00 | 0.00 | 0.00 | 72 | 1014.4 | |
| 20260509131516 | 57 | 0.0 | 0.0 | 0.00 | 0.00 | 0.00 | 73 | 1014.4 | |
| 20260509130556 | 56 | 0.0 | 0.0 | 0.00 | 0.00 | 0.00 | 75 | 1014.4 | |
| 20260509125516 | 56 | 0.0 | 0.0 | 0.00 | 0.00 | 0.00 | 74 | 1014.4 | |
| 20260509124516 | 55 | 0.0 | 0.0 | 0.00 | 0.00 | 0.00 | 74 | 1014.4 | |
| 20260509123516 | 55 | 0.0 | 0.9 | 0.00 | 0.00 | 0.00 | 75 | 1014.3 | |
| 20260509122516 | 54 | 0.0 | 0.9 | 0.00 | 0.00 | 0.00 | 76 | 1014.4 | |
| 20260509121537 | 53 | 0.0 | 0.0 | 0.00 | 0.00 | 0.00 | 77 | 1014.4 | |
| 20260509120517 | 53 | 0.0 | 0.0 | 0.00 | 0.00 | 0.00 | 78 | 1014.3 | |
| 20260509115516 | 52 | 0.0 | 0.0 | 0.00 | 0.00 | 0.00 | 80 | 1014.4 | |
| 20260509114516 | 51 | 0.0 | 0.0 | 0.00 | 0.00 | 0.00 | 77 | 1014.4 | |
| 20260509113556 | 51 | 0.0 | 0.0 | 0.00 | 0.00 | 0.00 | 79 | 1014.5 | |
| 20260509112516 | 50 | 0.0 | 0.9 | 0.00 | 0.00 | 0.00 | 82 | 1014.4 | |
| 20260509111516 | 49 | 0.0 | 0.0 | 0.00 | 0.00 | 0.00 | 84 | 1014.4 | |
| 20260509110516 | 49 | 0.0 | 0.0 | 0.00 | 0.00 | 0.00 | 84 | 1014.3 | |
| 20260509105516 | 48 | 0.0 | 0.9 | 0.00 | 0.00 | 0.00 | 84 | 1014.3 |